Dewpoint
69 70 70 71 71 71 70 70 70 70 70 70 70 69 69 68 68 67 66 64 60 59 59 60 64 65 65 64 64 63 62 62
68 69 70 70 70 70 70 70 69 70 70 69 69 68 68 68 67 66 64 62 60 59 59 62 65 64 64 63 62 60 59 59
67 68 69 69 70 70 70 70 69 69 69 69 68 67 67 67 65 64 63 62 60 58 61 63 64 63 63 61 59 57 58 59
66 67 68 68 68 69 70 70 69 69 69 68 67 66 65 64 64 63 62 61 60 59 62 63 62 62 60 58 57 56 57 57
66 66 67 67 67 69 70 69 69 69 68 67 65 64 63 63 63 62 61 61 59 59 60 57 58 58 57 57 56 56 56 55
66 66 66 66 66 67 68 69 69 68 67 65 64 63 62 62 61 60 60 59 56 55 53 55 55 55 55 56 56 56 55 55
66 66 66 66 66 66 67 67 67 66 65 64 64 62 61 61 60 59 58 57 54 51 51 55 54 54 54 54 54 54 55 55
66 66 66 66 65 65 65 66 66 65 64 64 63 62 61 60 59 58 57 55 52 49 52 54 53 52 52 52 52 53 53 54
66 66 66 66 65 65 65 66 65 65 64 63 62 61 60 59 59 58 57 54 49 50 54 53 52 51 50 50 51 51 51 51
65 66 66 66 66 66 65 66 65 65 64 63 62 61 60 59 58 57 56 52 50 51 53 52 51 50 50 49 48 48 48 48
63 65 65 66 66 66 66 66 65 65 65 63 61 60 59 59 57 57 54 52 52 52 52 52 50 50 49 48 47 47 47 47
63 64 65 65 65 66 65 64 64 65 64 63 62 61 59 58 58 56 54 51 53 52 51 51 50 50 47 46 45 45 45 46
62 63 64 64 64 63 62 61 62 62 63 62 62 61 59 58 56 55 54 52 52 52 51 50 49 46 43 42 41 42 43 43
61 61 63 64 63 63 61 60 61 61 61 61 61 60 59 58 57 56 54 52 52 51 49 48 46 47 45 40 38 39 40 41
58 59 60 59 58 58 57 57 57 58 58 59 59 60 58 58 57 56 54 52 52 50 48 47 44 45 44 39 36 36 38 39
51 55 57 59 58 57 56 56 55 55 57 57 58 59 58 57 56 54 53 53 52 50 48 46 45 42 42 38 38 38 36 36
34 52 55 58 58 57 57 56 56 55 55 56 56 55 56 56 56 54 53 53 53 51 48 46 45 43 42 38 37 37 36 36
21 30 32 45 55 57 56 56 55 54 54 54 54 54 54 55 55 55 54 53 52 52 50 47 44 44 42 39 36 35 35 35
26 27 30 33 45 51 53 55 55 55 54 54 54 53 52 53 54 53 53 53 52 53 52 50 47 44 43 40 39 37 36 36
35 36 36 37 37 44 51 54 55 55 55 54 54 53 53 53 53 52 52 52 52 52 51 50 48 46 44 41 39 37 36 36
Wind_Speed
17 18 19 21 22 23 23 22 23 22 21 22 22 22 23 23 21 20 18 16 13 13 14 16 22 25 24 24 24 23 19 15
19 19 19 19 19 24 25 23 23 24 24 24 23 22 23 23 25 22 19 17 16 13 10 15 24 26 27 26 23 20 18 17
16 18 18 19 17 18 21 22 23 23 24 24 23 18 19 22 20 24 22 19 17 16 11 11 22 24 24 25 21 15 16 14
16 18 19 19 17 18 18 18 18 19 20 20 17 17 16 15 19 22 22 22 19 17 16 22 18 15 16 17 13 14 14 15
19 18 20 21 18 17 17 17 18 17 19 17 14 14 15 16 13 15 15 19 17 19 15 13 16 13 10 12 14 14 12 13
22 23 23 23 19 18 17 17 16 17 21 21 18 15 14 13 14 14 15 14 17 18 17 15 14 14 14 15 14 13 10 13
24 21 23 23 21 18 16 18 16 16 16 20 21 20 20 18 15 13 14 16 18 20 19 17 17 17 13 15 17 15 14 13
25 26 23 21 24 23 20 18 15 16 18 22 22 20 19 19 17 16 16 15 15 18 18 17 15 17 17 14 15 15 15 15
28 28 25 25 27 23 21 21 20 18 17 20 22 23 23 23 21 18 19 18 18 18 18 17 17 15 17 14 14 14 16 15
28 26 29 30 28 22 20 17 17 17 16 17 23 22 23 20 16 19 14 18 19 19 21 20 18 18 17 13 13 13 15 14
25 28 30 31 26 21 20 22 21 21 19 19 19 17 15 19 19 17 20 19 16 17 19 24 23 20 19 16 12 12 14 14
23 22 23 26 21 15 15 17 18 18 19 21 25 25 27 21 13 16 18 21 19 20 19 16 23 23 20 16 11 10 10 12
4 8 12 18 21 22 19 21 18 18 17 17 19 19 22 26 24 20 13 22 29 26 25 26 20 23 21 17 13 10 9 10
17 11 4 8 9 8 4 12 12 14 9 11 14 18 20 21 25 22 34 26 22 24 28 21 19 25 18 15 8 4 4 5
16 13 10 11 9 5 5 5 2 6 11 13 14 14 16 21 21 20 24 25 28 30 29 29 27 20 33 11 9 8 13 3
11 10 8 5 3 1 3 5 8 4 7 8 11 13 14 16 16 18 20 11 16 27 27 25 31 27 21 7 9 19 9 9
9 7 5 2 6 7 6 9 11 6 7 10 11 6 11 14 15 19 21 21 24 22 28 25 28 26 28 12 16 14 12 11
12 8 6 5 3 6 8 12 15 10 11 11 10 10 9 10 15 17 24 24 23 19 20 27 28 24 24 19 22 15 17 12
11 8 8 9 4 7 12 16 17 17 15 14 13 13 11 18 16 15 15 24 24 23 23 20 22 27 29 22 18 14 18 13
16 15 15 14 14 12 15 19 17 18 18 18 19 18 20 20 21 20 18 16 21 23 17 17 13 14 23 21 19 16 20 22
Wind_Direction
171 178 181 178 177 176 176 173 173 170 167 163 161 160 156 151 147 142 140 133 128 134 143 137 135 133 127 122 118 115 113 112
177 177 179 179 179 181 181 178 175 175 171 168 165 158 154 151 149 146 144 138 135 140 149 141 139 132 130 125 116 108 106 104
181 180 179 182 182 181 182 182 179 176 173 170 162 160 156 154 155 150 150 141 139 143 137 137 135 132 128 123 118 119 113 110
186 183 184 184 184 183 183 185 186 186 181 173 166 162 160 159 158 154 150 142 139 140 131 132 125 126 124 114 116 115 114 117
196 186 186 187 188 184 187 186 187 185 181 172 162 161 160 156 157 154 150 146 141 139 136 127 128 127 118 112 114 112 120 116
193 191 187 191 188 192 187 184 183 185 178 172 167 168 170 169 161 170 156 152 148 146 145 129 117 114 117 113 108 112 112 116
204 193 192 193 192 192 191 194 182 178 175 177 173 178 179 172 172 171 165 158 157 151 148 135 125 116 109 115 113 111 106 104
196 198 196 191 196 197 195 195 191 178 182 183 184 182 179 179 174 176 173 170 158 147 146 137 129 124 117 116 113 109 104 102
195 195 191 194 200 198 196 197 190 193 192 184 186 184 184 184 180 183 180 164 155 140 137 130 127 124 120 117 113 109 105 99
198 193 194 198 201 197 195 193 197 200 197 202 199 194 188 182 188 182 176 147 157 147 146 142 138 136 128 121 112 108 104 97
203 195 197 200 200 193 186 195 191 198 196 197 188 204 185 187 190 185 157 148 148 155 153 150 146 142 134 122 118 118 114 108
213 212 200 196 195 188 198 199 199 200 199 201 210 200 182 183 207 177 157 150 155 154 154 151 149 142 128 113 103 97 107 112
8 210 202 198 194 188 199 201 200 203 205 207 218 219 194 175 170 164 124 176 175 165 155 151 149 138 118 94 77 76 100 113
45 39 82 198 192 203 229 204 215 207 206 205 210 206 201 199 188 173 176 186 181 166 161 153 152 161 151 122 129 100 71 107
37 39 32 24 38 83 14 63 26 177 200 209 214 202 204 199 201 186 187 169 182 179 169 164 163 173 162 141 144 176 141 132
36 39 37 14 339 308 241 289 274 260 233 197 208 204 195 204 188 169 170 185 188 178 172 179 165 171 176 148 137 134 162 153
15 20 15 258 244 225 229 258 269 295 249 207 205 206 202 171 193 168 168 177 193 199 181 181 181 172 182 155 133 127 127 142
356 10 22 76 308 291 273 253 251 241 232 220 204 195 202 214 185 198 182 184 188 199 215 186 187 183 186 170 162 160 167 150
351 346 339 342 327 238 242 255 262 243 219 219 212 193 195 209 197 205 204 194 192 183 188 218 205 186 184 181 178 174 158 135
333 336 326 308 300 275 253 247 240 245 240 216 212 205 195 206 212 198 194 203 190 188 168 183 224 227 199 183 179 158 160 151